Theta_e
318 318 318 318 318 318 318 318 318 318 318 319 319 319 319 319 319 319 319 319 319 319 318 318 318 318 318 318 318 319 318 313 311 310 310 309 319 324 340 336 340 340 342 327 321 327 320 323 320 321 316 314 315 316 333 342 346 336 323 316 311 315 318 325 322 325 329 325 328 332 336 332 329 335 339 343 335 332 332 331 334 337 337 340 342 344 345 346
318 318 318 318 318 318 318 318 318 318 318 318 318 318 318 319 319 319 319 319 319 318 318 318 317 318 318 318 318 319 316 313 309 309 308 320 329 330 334 342 344 346 338 316 316 317 314 315 317 317 315 313 326 318 339 335 342 327 321 317 312 317 323 332 330 331 327 326 331 334 338 335 331 335 337 331 328 328 327 329 333 332 336 340 342 343 344 345
318 318 318 318 318 318 318 318 318 318 318 318 318 318 318 318 318 318 318 318 318 318 318 317 317 318 318 318 319 319 315 309 310 308 311 334 334 337 336 343 348 345 320 310 316 317 315 314 316 316 316 318 323 321 332 334 337 332 322 316 317 325 331 332 333 331 332 331 332 334 336 334 335 339 341 329 325 327 324 326 329 330 331 336 339 342 343 343
318 318 318 318 318 318 318 318 318 318 318 318 318 318 318 318 318 318 318 318 318 318 317 317 318 318 318 319 319 316 312 308 306 311 317 343 343 337 341 343 347 346 320 316 314 313 318 319 316 318 317 317 324 328 328 335 329 333 325 319 322 327 330 333 333 333 334 336 334 333 335 334 339 338 338 329 323 324 326 331 330 329 332 335 338 340 341 341
318 318 317 317 318 318 318 318 318 318 318 318 318 318 318 318 318 318 318 318 317 317 317 317 318 318 318 319 319 315 309 299 305 317 319 353 348 340 344 344 343 340 322 314 313 314 317 319 317 317 318 316 323 325 330 335 335 333 327 329 329 330 331 335 336 336 337 340 335 334 332 332 341 340 334 328 321 321 326 332 334 334 335 336 337 339 340 340
318 317 318 318 317 317 318 318 318 318 318 318 318 318 318 317 317 317 317 317 317 317 317 318 318 318 319 319 315 313 305 294 309 311 352 355 349 341 345 346 344 331 317 310 310 310 312 313 313 312 311 313 316 316 317 334 335 321 326 330 330 332 333 337 337 338 338 336 333 331 336 338 335 334 337 337 328 330 335 336 337 337 338 339 340 340 339 339
317 317 317 318 317 318 318 318 317 317 317 318 318 317 317 317 317 317 317 317 317 317 317 318 318 318 318 319 312 311 297 298 307 309 345 357 351 341 345 345 350 323 313 308 307 308 309 309 311 310 314 313 315 316 319 331 333 325 320 329 329 337 335 338 337 339 338 337 334 339 338 334 333 328 338 334 339 338 336 338 338 339 340 340 338 339 339 339
317 317 317 317 317 317 317 317 317 317 318 317 317 317 317 317 317 317 317 317 317 317 317 318 318 317 318 313 311 304 301 299 306 310 347 353 345 338 340 337 328 318 311 307 306 306 309 308 310 313 311 311 310 314 316 327 330 324 321 327 332 337 337 339 339 338 339 339 341 340 335 333 337 334 337 334 335 339 335 338 338 339 339 339 338 338 339 339
317 318 317 317 317 317 317 317 317 317 318 317 317 317 317 317 317 317 317 317 317 317 317 317 318 317 318 312 306 299 295 307 314 333 348 341 334 336 332 331 317 314 310 307 306 306 310 308 309 313 309 312 317 314 313 323 321 327 325 330 335 335 337 339 338 338 339 339 337 332 332 335 336 338 331 334 335 338 337 336 337 338 337 337 338 338 338 338
317 317 317 317 317 317 317 317 317 318 317 317 317 317 317 317 316 316 317 317 317 317 317 318 318 319 312 309 303 288 297 310 329 341 337 335 334 332 323 325 315 310 307 306 305 306 309 311 312 314 314 313 315 311 320 320 318 330 328 331 335 335 336 338 336 338 338 336 337 330 330 332 337 337 324 336 338 339 335 334 336 336 336 337 338 338 339 339
317 317 317 317 317 317 317 317 318 317 317 317 317 316 316 316 316 316 317 317 317 318 318 318 320 317 310 310 292 289 301 329 330 331 335 335 331 324 319 318 315 309 307 304 305 308 310 316 317 316 316 311 311 307 320 324 318 331 335 335 335 333 335 337 337 335 336 331 334 333 330 334 335 334 328 333 340 342 333 333 334 334 335 336 337 337 338 339
317 317 317 317 317 317 317 318 317 317 317 316 316 316 316 316 316 316 317 318 318 319 319 319 319 315 311 307 299 295 308 328 327 328 328 326 323 322 318 317 313 309 306 304 305 308 311 313 313 314 308 315 308 308 305 313 317 332 334 326 328 331 330 335 334 335 336 331 335 335 329 326 329 328 334 337 340 341 334 332 333 334 335 336 337 337 338 338
317 317 317 317 317 317 317 317 317 317 316 315 315 315 315 316 316 316 317 317 320 320 320 318 318 314 309 295 300 311 313 312 311 324 326 322 319 317 315 313 312 308 307 305 305 308 310 312 314 310 312 312 309 306 308 311 309 333 331 327 325 325 324 331 334 336 335 332 334 332 315 319 325 332 337 338 339 338 333 331 333 333 335 336 336 336 337 338
317 318 318 317 317 317 317 317 317 316 315 315 315 315 315 315 315 316 317 318 321 321 318 320 316 311 306 296 304 314 315 314 314 310 320 325 319 316 316 313 311 309 309 307 308 311 311 312 314 311 315 310 308 313 307 305 329 324 328 328 319 318 317 329 331 331 330 335 336 334 314 318 325 332 338 338 338 334 331 331 332 333 334 335 335 335 336 336
317 317 317 317 317 317 317 317 316 315 315 315 314 314 314 313 315 317 319 320 321 321 320 320 313 309 302 301 309 314 331 328 315 312 315 320 315 310 313 312 309 310 308 307 309 314 314 314 313 310 307 316 314 310 301 300 319 325 320 313 317 314 317 327 331 330 327 331 336 328 314 318 325 331 337 337 337 335 331 331 332 332 333 334 334 334 335 335
317 317 317 317 317 317 317 316 316 316 315 314 313 313 314 315 317 319 321 322 321 321 319 311 311 310 302 297 305 326 318 318 317 319 315 321 316 309 312 311 309 309 308 307 309 311 313 315 309 309 310 311 305 297 295 307 316 320 313 311 314 313 316 322 328 331 335 332 334 330 315 321 322 332 336 338 334 335 331 330 331 331 332 333 333 333 334 333
316 317 317 317 317 317 317 316 315 315 314 313 313 313 315 316 318 320 322 323 320 320 315 308 309 313 296 304 315 312 310 311 314 316 314 320 317 311 310 307 306 305 305 306 310 309 310 310 310 312 309 303 300 298 295 299 303 313 306 312 316 313 317 315 326 330 334 332 325 330 322 322 326 331 334 337 335 334 331 330 330 330 331 332 333 333 333 332
317 316 316 316 317 317 316 316 315 315 313 311 311 312 311 317 320 321 320 320 319 317 315 316 312 305 302 311 304 305 312 312 314 311 314 317 318 310 308 305 306 304 305 306 310 306 309 305 306 299 298 301 299 296 294 296 309 311 302 309 312 316 319 317 319 326 330 331 327 326 324 323 327 331 331 334 336 333 330 330 329 330 331 332 332 332 332 332
317 317 316 316 316 316 316 316 315 314 312 311 313 317 318 318 317 314 310 313 306 301 295 302 303 294 293 302 309 311 312 315 316 312 309 312 312 309 309 310 307 305 302 302 302 305 306 303 303 299 296 296 298 298 296 299 305 302 302 310 313 313 315 315 324 330 330 326 323 323 320 322 325 328 330 333 335 332 331 332 330 331 332 331 331 332 331 331
317 316 316 316 315 316 316 315 314 312 310 307 306 313 310 301 297 304 311 311 305 304 302 302 306 304 306 307 307 312 316 316 312 309 308 315 312 307 306 309 307 305 302 299 301 303 303 297 294 295 297 299 300 299 300 301 301 299 301 314 315 315 317 322 326 329 332 325 322 322 325 324 326 327 330 331 333 331 331 330 330 331 331 329 330 331 330 331
316 316 316 315 315 315 315 314 313 312 307 307 306 302 299 298 294 292 298 307 309 309 305 305 307 306 305 308 310 310 306 307 310 308 308 321 311 306 303 306 302 299 300 301 301 305 303 295 295 298 298 299 299 299 300 300 300 299 296 306 313 316 314 320 325 329 331 323 319 324 325 325 326 329 329 331 331 328 328 329 329 329 331 329 329 329 330 330
316 316 315 315 314 314 314 313 313 311 308 305 306 304 302 302 306 306 301 296 302 308 309 308 310 308 312 311 313 313 312 306 306 305 310 315 309 305 304 303 299 297 300 302 302 300 297 295 298 299 300 301 300 299 299 299 299 298 296 296 311 312 321 326 326 328 327 323 318 325 322 323 325 328 330 330 330 331 332 331 330 329 329 328 328 328 329 328
316 315 315 315 314 313 312 312 311 309 306 307 304 305 306 309 310 309 307 299 298 303 304 305 305 306 308 312 314 314 306 302 301 305 310 312 307 307 304 300 299 299 301 301 297 295 295 296 299 301 301 300 300 300 298 298 298 295 294 296 301 317 317 311 323 325 324 321 319 323 320 322 327 329 329 331 332 332 335 334 334 334 331 328 328 327 328 327
316 316 315 315 314 312 313 311 308 308 304 305 306 306 310 311 311 308 305 297 297 302 303 303 304 304 304 304 308 308 304 304 304 305 319 310 305 306 303 300 299 299 297 298 298 295 295 298 301 301 301 299 298 299 297 295 293 295 295 295 310 318 317 318 319 323 324 325 326 323 319 319 323 322 324 329 333 333 334 334 336 338 334 334 336 336 329 327
316 316 316 314 313 312 310 309 305 308 309 307 306 310 312 313 313 307 303 297 296 297 305 305 307 305 305 309 310 304 303 305 307 309 315 310 306 305 302 304 300 297 298 298 297 296 297 301 303 301 300 299 298 296 296 295 292 292 294 297 312 320 318 321 322 319 315 314 321 318 306 309 320 322 322 326 328 328 332 328 330 333 335 333 333 334 331 329
315 315 315 314 314 311 309 306 309 309 308 307 310 312 313 315 310 308 301 292 289 295 298 297 303 299 306 301 307 304 303 299 305 308 313 310 315 306 305 301 302 296 298 298 296 295 298 303 302 300 299 298 297 296 296 297 291 292 292 297 311 319 320 320 318 316 309 306 317 320 304 301 314 318 320 323 325 326 329 329 330 330 333 332 332 333 335 328
315 315 314 313 312 309 304 303 308 309 304 307 311 313 314 314 317 309 300 286 282 294 293 298 298 298 305 302 304 303 291 293 304 312 311 318 309 313 300 298 302 304 303 302 299 294 301 300 299 300 299 297 295 295 298 297 292 290 294 304 319 319 320 319 318 316 311 320 320 320 310 301 303 314 323 324 323 324 326 327 330 331 331 331 332 333 335 334
315 314 313 312 310 309 305 306 308 305 306 309 314 314 314 315 314 305 293 279 281 297 294 295 299 306 304 302 304 298 298 302 299 303 311 313 311 307 304 298 298 298 303 300 291 297 299 299 298 297 297 295 295 297 299 298 294 293 298 318 317 320 321 320 317 312 313 313 308 314 314 302 299 309 322 323 318 321 322 325 328 331 331 331 331 333 335 337
314 313 312 311 310 308 308 306 307 305 309 313 314 313 315 314 306 298 287 278 294 293 305 297 307 303 301 301 300 299 299 302 296 299 308 311 311 305 301 300 301 300 302 301 294 296 301 300 300 300 297 295 298 299 299 299 295 300 300 318 320 321 322 320 316 310 311 306 302 309 314 299 297 311 316 321 320 320 322 325 328 330 331 331 331 333 337 337
314 313 312 310 306 307 306 307 306 311 313 313 313 313 313 307 298 289 283 278 296 289 298 299 298 295 299 295 295 299 298 298 301 305 308 305 308 309 306 306 303 302 299 300 298 299 300 310 312 300 298 300 300 300 300 299 302 300 302 313 314 315 314 314 311 307 307 300 303 312 314 306 296 308 315 315 318 322 324 327 330 331 332 331 332 333 337 336
313 311 310 309 303 310 307 302 306 311 313 312 313 312 304 298 292 282 279 287 296 294 297 295 295 299 295 294 291 294 297 298 300 305 302 304 301 305 304 302 301 295 292 294 295 297 299 300 301 302 306 303 302 300 301 302 302 301 298 304 309 306 308 306 305 307 297 295 300 311 313 310 296 299 313 320 323 327 326 326 328 330 331 331 331 333 337 337
310 309 310 306 308 312 303 303 306 310 312 313 313 305 296 291 287 282 284 300 290 292 292 292 296 296 294 295 294 295 293 297 300 302 299 299 297 297 297 294 294 293 289 288 292 294 293 296 298 300 311 303 299 297 297 299 298 298 298 309 304 296 298 296 297 297 294 296 301 309 312 306 303 304 313 319 321 326 328 329 329 331 332 332 332 332 336 337
308 308 308 309 311 306 309 310 312 312 313 313 308 298 291 283 281 286 288 292 289 295 291 298 295 295 293 292 291 295 297 294 299 301 300 296 297 298 300 299 296 293 288 290 290 289 290 295 299 300 302 306 301 295 292 293 294 296 296 302 299 292 293 290 292 295 293 301 304 309 312 303 305 309 315 317 322 326 329 330 331 333 333 333 333 333 336 338
308 308 306 310 309 310 311 316 315 313 313 312 301 295 290 284 284 307 294 290 291 296 298 296 295 295 294 290 294 296 290 296 299 298 296 293 293 295 296 297 299 296 296 291 290 286 287 290 294 299 296 302 301 299 296 291 294 297 297 303 299 300 295 290 291 291 294 296 304 311 306 297 301 304 317 319 323 327 329 331 332 334 335 335 336 336 336 337
308 307 306 308 310 311 311 313 312 315 309 304 298 289 284 282 287 287 289 289 292 296 295 296 294 293 292 293 296 298 297 292 297 298 295 293 290 293 295 294 297 296 295 290 292 294 291 288 294 300 301 302 302 302 301 299 297 297 298 300 301 302 299 296 297 296 294 300 301 303 300 305 305 316 320 323 325 328 330 330 332 332 334 335 334 335 335 337
306 309 309 308 310 312 313 314 313 311 304 301 293 288 288 290 288 292 290 295 296 294 294 293 294 290 289 290 294 295 300 295 297 294 294 293 295 294 297 296 295 297 292 289 291 289 292 288 296 299 301 301 303 304 304 302 292 296 298 293 296 303 304 296 300 301 304 301 299 304 303 306 312 315 319 322 324 325 328 330 331 332 333 334 333 334 336 334
309 312 307 310 312 315 315 315 315 308 304 298 290 289 291 297 294 294 307 296 297 296 292 287 289 289 288 288 289 293 295 297 296 294 292 296 291 296 295 295 299 298 298 295 292 294 288 290 294 298 299 302 303 304 304 303 300 298 294 296 300 304 301 294 289 292 291 292 296 301 300 301 301 301 316 321 321 323 325 327 329 331 332 332 332 332 335 337
307 310 315 315 314 314 316 316 313 305 299 295 290 303 300 298 300 298 297 296 296 295 291 289 291 293 290 288 289 291 294 292 293 294 294 295 289 299 297 294 298 297 298 299 294 295 294 287 291 296 298 300 303 303 301 305 303 298 297 302 298 294 295 295 294 289 290 292 294 298 301 301 300 303 312 316 317 318 320 324 326 328 330 329 330 332 335 337
307 306 304 310 315 316 317 316 310 304 295 291 289 293 305 299 300 298 298 298 297 293 290 293 290 294 292 289 291 290 294 290 293 293 291 294 289 299 296 296 295 298 298 298 294 296 295 288 289 296 298 299 298 296 292 295 302 303 301 299 301 298 294 293 292 290 299 294 296 296 299 296 304 306 316 315 318 318 322 324 325 327 328 329 329 332 334 334
304 300 300 311 313 315 317 311 304 298 295 292 290 295 298 299 299 299 299 300 296 292 294 293 295 291 293 294 294 290 293 294 292 293 294 295 293 300 295 297 295 297 298 300 300 300 294 295 287 292 297 298 295 293 292 294 294 298 294 293 298 298 299 298 296 296 297 296 296 296 295 298 304 312 315 317 317 320 322 321 321 322 326 329 330 331 332 334
308 299 300 310 310 315 311 305 298 296 294 294 297 298 299 298 299 298 300 299 297 299 295 295 294 291 294 292 292 294 294 292 292 290 292 294 293 290 297 296 297 296 297 296 297 299 295 291 290 290 291 289 292 295 298 297 297 295 292 295 292 294 294 290 289 296 302 298 294 296 291 296 307 320 318 318 320 321 322 320 320 320 322 324 327 330 331 332
301 297 301 316 312 310 305 298 297 297 295 296 293 297 298 311 296 297 298 298 299 296 299 296 297 296 295 294 294 293 292 293 293 291 294 290 295 292 296 295 296 298 296 293 294 298 299 295 295 291 291 294 296 299 301 299 299 297 295 296 295 293 291 286 285 291 301 302 305 299 297 297 312 318 319 319 320 321 321 321 320 320 321 322 324 326 328 330
300 300 308 314 315 306 298 293 301 300 295 294 300 297 297 297 295 298 296 297 297 298 296 296 297 295 297 297 296 294 293 293 294 291 293 294 294 296 296 296 298 299 294 293 298 298 312 294 293 295 295 296 297 297 301 301 296 295 294 294 294 293 296 292 289 293 298 300 298 295 296 301 313 318 318 318 319 320 320 320 319 320 321 322 322 323 324 324
301 301 307 313 310 303 297 293 290 291 293 295 296 296 298 297 295 294 294 296 297 295 295 295 297 298 298 300 298 295 297 289 296 295 293 296 293 298 297 298 303 301 300 297 296 301 295 295 294 291 288 289 290 294 295 299 299 294 293 294 294 295 298 296 299 300 299 300 299 298 294 301 310 319 318 318 319 318 318 320 321 319 320 320 321 321 322 323
304 306 306 310 309 301 297 292 290 288 298 296 294 294 295 295 296 296 297 296 297 298 296 295 297 298 298 301 299 299 299 294 293 297 297 298 297 300 300 298 303 304 310 311 316 309 296 298 295 288 284 283 282 281 286 291 293 295 296 294 296 294 297 297 299 296 290 299 300 298 299 307 313 316 316 317 317 316 318 319 320 320 319 319 319 320 320 321
301 295 300 298 301 295 298 297 292 292 292 294 291 293 294 293 296 297 296 297 298 300 299 301 301 299 298 298 298 298 297 300 295 296 296 295 297 298 299 299 301 304 316 316 314 306 298 302 297 293 289 288 288 289 293 304 293 291 293 295 296 295 299 298 296 294 293 297 298 299 304 307 310 313 313 315 315 314 315 317 317 318 318 318 318 318 318 319
303 294 296 295 302 292 292 292 296 295 293 294 288 293 293 295 294 296 298 295 298 298 299 299 300 298 298 296 297 297 298 297 298 296 295 297 297 299 300 300 299 308 317 309 310 303 298 295 298 298 297 297 297 296 296 301 294 295 295 295 297 296 296 298 294 292 301 301 293 299 308 306 308 312 313 313 314 314 315 316 316 317 317 317 317 317 319 316
295 299 301 305 293 289 289 291 294 297 299 295 293 295 294 293 294 294 296 299 299 299 296 297 297 298 299 298 297 293 295 294 294 293 296 297 295 297 295 298 297 305 305 298 303 297 294 294 300 298 295 296 296 295 294 297 296 298 296 297 296 297 298 302 301 302 304 298 297 303 308 307 309 313 314 314 314 314 315 316 317 317 317 316 315 314 314 314
303 303 304 309 297 295 292 298 299 297 298 296 295 296 293 293 293 295 295 295 296 296 296 291 294 294 294 297 295 291 292 287 290 294 294 293 295 293 292 294 297 298 298 296 297 300 293 294 302 298 295 295 296 296 295 294 296 297 297 298 298 300 306 304 305 306 303 299 304 308 308 306 310 313 314 315 317 316 316 316 316 316 315 315 313 313 312 313
299 300 301 307 306 302 304 298 298 295 292 300 290 294 294 292 293 294 295 294 292 294 298 294 295 295 294 293 293 289 294 295 294 290 295 294 292 294 294 294 292 295 296 295 296 296 293 293 304 298 293 293 295 297 296 296 297 296 297 298 298 298 306 307 307 308 310 308 309 309 306 306 308 314 316 318 317 317 316 314 314 314 314 314 312 311 311 311
309 306 308 303 299 302 307 299 296 293 290 292 288 297 297 294 294 295 294 297 296 295 297 294 296 295 295 293 292 294 295 295 297 295 295 296 291 296 293 294 297 293 294 294 295 296 295 291 299 297 290 290 293 294 294 295 296 297 296 297 297 297 295 300 303 307 305 304 306 306 304 303 309 315 316 316 315 315 313 313 313 313 313 312 311 310 311 311
309 308 312 305 299 307 299 301 293 290 290 291 294 297 296 295 297 294 291 295 298 299 298 296 295 293 291 291 292 295 296 296 296 296 294 294 295 297 298 298 296 295 292 293 295 293 294 289 290 293 287 288 292 293 293 292 291 292 293 295 297 298 300 304 309 311 310 310 306 303 304 310 312 316 313 313 314 314 313 313 312 311 311 311 310 311 311 312
Wind_Speed
13 13 13 12 13 13 13 14 14 14 14 14 13 13 13 14 13 12 12 12 13 13 13 13 13 14 13 13 13 14 12 9 10 2 2 15 8 11 7 8 6 15 11 2 7 9 2 3 3 3 3 4 3 1 2 3 2 2 1 1 3 4 1 4 7 6 3 12 8 10 5 9 9 1 1 1 8 6 6 8 6 10 10 10 13 14 14 14
13 13 13 13 13 14 14 14 15 15 14 14 14 13 13 13 13 13 13 12 12 12 13 13 13 13 13 12 13 13 11 6 8 8 18 8 8 13 13 9 6 12 10 2 8 7 7 5 4 5 3 3 2 2 7 2 3 4 1 1 4 2 1 4 7 10 10 6 11 7 3 4 6 7 2 7 6 9 10 7 9 13 14 14 14 14 14 13
13 13 13 13 14 14 15 14 15 15 15 15 15 14 14 13 13 13 13 13 12 12 12 13 13 13 13 12 11 11 8 5 4 9 15 20 20 11 13 11 7 13 10 4 5 8 8 8 6 6 3 1 3 2 7 1 3 4 0 3 5 4 1 4 10 10 1 12 11 9 6 8 4 1 1 8 10 9 11 11 12 14 16 16 16 15 14 12
13 13 13 13 14 14 15 15 15 15 16 15 15 15 14 13 13 13 13 13 12 12 12 13 13 13 13 12 10 5 2 2 2 5 6 4 17 18 13 14 12 8 5 1 5 4 1 4 6 7 3 3 1 4 5 3 4 2 3 3 3 2 2 5 11 12 7 9 12 10 7 8 1 1 1 12 13 6 7 10 14 17 19 18 17 17 15 13
12 13 13 13 14 15 15 15 16 16 16 16 15 15 14 14 13 13 12 12 13 13 12 12 12 12 12 10 6 2 1 2 2 2 1 4 12 19 14 14 12 6 7 4 5 2 3 2 4 4 1 4 2 2 4 6 5 1 6 2 3 1 6 8 11 13 9 4 8 10 12 7 3 3 4 9 12 10 10 11 12 17 19 19 20 17 14 15
13 13 12 13 14 14 15 16 16 16 16 15 15 15 15 14 13 12 12 12 13 13 12 11 11 11 11 10 3 3 0 1 3 4 0 1 12 18 13 12 13 7 6 5 3 4 3 2 2 4 3 1 3 6 2 8 6 3 3 4 4 2 6 7 11 12 10 9 10 11 5 8 4 5 2 2 3 3 4 10 14 15 17 16 15 15 15 16
13 13 14 14 14 14 16 16 16 16 16 15 15 15 14 14 12 12 13 14 12 12 12 10 9 10 10 9 1 1 1 8 3 9 6 4 10 16 13 12 11 8 6 6 3 4 4 3 4 2 1 2 5 5 4 6 8 5 4 0 3 5 8 9 12 12 9 11 9 6 8 6 9 10 2 3 3 3 7 12 13 13 14 15 15 14 15 14
13 14 14 14 14 14 15 15 16 16 15 15 15 14 14 13 13 13 13 13 11 11 10 9 8 7 7 4 0 1 1 7 12 5 1 8 11 14 11 5 7 7 7 8 7 4 6 5 7 3 2 4 2 6 3 5 7 7 6 2 6 7 8 10 12 9 9 8 9 10 10 7 3 4 2 5 8 5 11 11 12 14 14 13 13 14 14 13
14 13 14 14 14 15 15 15 16 16 16 15 15 14 13 13 13 13 12 12 11 10 9 7 5 4 4 1 0 2 6 7 5 2 8 8 10 10 11 5 5 8 5 5 5 5 6 7 3 4 4 4 8 7 3 5 4 8 6 1 9 8 9 10 11 10 9 6 12 14 10 8 7 5 6 3 3 4 9 12 14 14 14 13 14 13 13 12
14 14 13 14 14 14 15 15 16 16 16 15 14 14 13 13 13 13 12 11 10 9 8 7 6 3 1 0 0 0 4 5 2 1 6 10 9 9 7 7 11 7 7 6 4 5 9 4 9 5 3 6 5 7 2 9 3 7 8 2 10 11 10 9 12 10 9 8 8 14 12 8 4 2 1 0 2 3 11 14 13 15 15 13 12 12 12 13
15 14 14 13 14 14 15 15 15 15 15 15 15 14 14 13 12 12 12 11 9 9 7 5 5 2 2 1 3 5 6 4 3 3 5 10 11 9 11 7 9 9 8 4 7 9 6 2 5 1 1 4 3 4 3 2 2 8 11 10 8 8 5 6 8 9 10 9 13 12 9 6 3 1 6 7 5 4 15 15 14 13 13 13 13 12 11 11
15 15 14 14 14 14 15 15 15 14 14 15 15 15 14 12 12 12 11 10 9 6 4 5 5 2 1 0 2 7 4 4 3 4 4 8 8 11 11 8 10 11 10 8 9 10 7 3 2 0 3 3 2 5 3 1 2 14 15 8 6 8 5 1 9 9 10 9 14 11 11 5 2 3 2 6 3 3 15 15 14 13 12 12 12 11 10 10
17 17 16 15 15 14 15 15 15 15 15 15 15 14 13 13 12 11 10 9 7 4 2 5 5 0 0 2 10 10 6 4 3 2 2 2 2 1 1 3 8 6 9 8 5 6 6 2 0 1 2 3 4 2 2 1 1 11 9 10 6 4 0 3 2 5 7 10 13 10 8 5 3 4 5 8 5 6 14 15 13 11 11 11 11 11 10 9
20 19 17 16 16 15 14 15 15 14 15 15 14 15 13 13 11 10 10 8 8 6 4 8 3 2 1 5 6 2 6 4 2 3 5 3 1 2 2 1 3 2 0 2 2 6 6 3 1 4 2 3 4 3 4 2 6 8 7 6 5 6 4 5 4 5 7 10 9 5 5 5 5 6 5 8 10 14 14 15 14 12 11 11 10 10 11 10
20 20 19 18 17 16 15 14 14 14 15 15 13 15 13 12 11 10 9 7 5 6 8 7 1 1 0 8 6 9 11 3 2 7 7 8 4 1 5 3 4 5 3 1 1 1 5 6 3 2 4 3 6 4 5 2 2 6 8 2 2 4 2 6 3 7 9 5 3 2 3 5 7 7 7 9 9 13 12 15 14 13 12 12 11 11 11 10
17 17 19 20 19 17 16 12 11 11 14 15 16 15 13 12 9 7 6 3 4 11 6 2 2 0 0 6 3 5 2 2 5 9 7 10 8 6 7 8 1 2 2 3 4 3 1 1 3 4 3 2 3 3 1 5 1 2 4 3 6 2 4 4 7 5 1 8 3 2 4 6 3 6 6 9 12 12 12 12 12 14 14 14 12 11 11 10
17 17 18 20 20 19 17 13 14 13 13 15 16 14 9 8 6 5 2 6 6 4 2 1 2 2 1 3 4 2 1 3 3 2 4 8 11 4 7 2 2 2 3 3 1 4 2 1 1 0 2 5 3 4 4 2 1 6 1 4 4 7 6 2 2 7 6 10 5 2 6 6 4 11 8 9 12 10 11 12 12 7 11 13 11 11 11 11
19 17 18 19 20 20 18 14 14 13 12 17 15 10 5 3 4 8 6 5 2 1 4 3 1 2 6 3 0 1 1 5 4 3 5 7 11 5 6 3 1 4 3 1 2 3 2 2 1 5 1 3 2 3 7 10 12 10 3 3 2 1 8 5 9 8 9 7 7 6 6 6 8 12 11 10 12 11 14 14 13 8 5 13 11 12 12 11
21 19 17 18 18 19 17 15 13 11 12 17 12 2 3 6 2 1 4 2 1 1 1 0 1 2 2 3 7 8 5 5 6 3 2 6 3 2 3 1 5 6 2 3 1 6 0 2 1 1 6 5 7 7 6 2 6 3 4 4 5 6 8 4 1 7 14 11 7 8 7 7 10 8 12 10 12 12 12 10 10 5 3 10 11 12 10 11
20 18 17 16 16 17 18 16 13 11 11 7 4 2 1 1 1 0 0 1 4 5 5 7 5 4 8 11 8 4 7 6 1 3 4 3 8 5 3 2 1 2 5 4 1 3 4 5 6 7 8 7 3 5 5 1 1 1 1 7 10 10 6 1 2 6 10 8 4 4 8 11 13 13 10 12 11 7 8 11 10 6 5 7 11 12 11 11
17 18 17 16 15 15 16 15 13 11 7 3 3 1 1 1 2 3 3 7 7 6 6 7 10 8 9 4 4 2 5 5 2 2 3 3 4 8 3 3 1 3 3 5 4 1 3 5 8 8 5 6 5 4 4 0 1 0 3 3 5 8 8 3 3 8 9 8 2 4 9 10 13 11 10 9 12 14 15 12 10 8 5 6 9 12 12 10
17 16 17 16 16 15 14 13 12 8 3 2 0 1 2 3 2 1 1 6 5 9 10 11 1 6 6 8 11 2 2 2 8 6 3 5 4 7 1 3 3 6 2 1 1 0 4 8 8 4 6 3 1 3 2 3 1 1 3 2 6 2 4 6 8 9 7 5 3 7 8 8 11 10 9 11 12 11 12 14 11 8 5 8 6 9 11 9
18 16 15 16 16 15 14 11 9 3 1 1 3 2 3 5 1 1 0 1 8 1 4 3 2 5 7 5 3 7 3 3 3 3 1 4 3 7 4 3 4 3 1 2 5 1 2 8 8 5 1 1 1 1 3 1 1 2 1 3 5 7 8 1 5 9 6 3 7 7 9 6 5 7 10 8 5 5 8 8 3 2 6 9 10 5 11 11
16 16 16 15 16 17 14 12 2 2 1 2 3 5 4 2 0 2 0 2 4 7 2 4 3 3 4 3 1 3 2 2 3 3 3 4 7 2 4 4 4 2 5 3 5 6 7 4 2 4 2 3 4 2 2 2 4 1 3 3 3 8 4 4 8 7 5 7 11 11 6 1 3 6 7 7 5 6 5 5 1 2 3 3 3 2 5 12
16 16 16 15 16 16 16 6 3 2 2 2 3 6 4 6 2 4 3 3 2 4 3 2 1 2 5 1 1 1 3 1 3 2 1 7 3 2 1 1 3 4 2 3 4 2 7 7 1 1 2 1 2 4 3 4 3 1 4 8 6 8 7 8 12 11 3 2 5 14 3 4 6 5 5 6 7 9 7 10 7 2 3 6 6 5 4 8
16 16 16 15 18 19 13 1 0 2 5 4 3 2 1 6 2 4 3 3 1 4 4 2 1 1 1 1 1 3 3 1 4 3 4 5 5 3 1 0 2 5 3 2 5 3 5 4 2 4 3 2 2 4 3 6 4 1 5 8 7 8 9 14 12 8 6 7 9 4 6 3 2 6 8 5 8 10 10 12 11 8 6 7 7 5 4 8
16 15 15 14 16 17 5 2 1 3 3 3 1 4 4 3 1 2 2 3 2 1 1 2 2 1 2 1 1 2 0 2 4 0 3 3 4 1 4 2 0 0 2 1 0 5 2 4 3 2 2 3 3 7 3 7 5 3 3 5 8 10 14 16 16 9 2 4 7 6 2 4 3 6 5 7 9 10 10 10 10 9 8 10 9 6 5 6
16 15 14 13 12 6 2 3 6 4 6 4 5 7 8 4 1 4 4 1 2 1 1 1 1 1 1 3 3 1 3 2 1 1 2 3 4 1 2 4 4 4 1 2 8 5 4 5 5 4 3 4 7 6 2 8 5 5 1 9 11 13 15 15 11 6 4 7 5 8 3 1 1 2 6 11 12 13 14 14 15 13 12 12 12 8 7 4
16 16 15 11 14 5 3 1 1 5 3 3 7 7 6 3 3 6 3 2 0 0 3 0 2 0 2 1 0 0 1 0 1 2 1 3 1 4 2 4 3 2 2 4 6 3 2 6 5 7 6 8 6 5 6 9 5 8 3 6 9 10 10 13 7 5 4 4 6 10 8 2 1 4 8 8 8 14 16 18 17 15 15 14 12 10 7 5
14 14 14 11 7 2 1 0 6 7 4 6 7 7 2 3 2 1 3 0 1 2 1 1 1 2 1 1 1 0 1 2 2 1 1 3 1 1 0 2 3 2 3 1 4 7 5 3 5 4 7 7 6 7 8 9 11 1 5 4 2 4 4 4 6 3 5 3 8 12 11 4 1 9 14 16 15 17 13 11 12 13 14 14 14 12 10 7
16 14 12 6 1 1 2 5 5 2 4 4 6 4 2 7 3 3 3 2 1 4 2 1 1 1 2 2 1 1 1 1 1 3 0 1 2 1 1 0 5 2 1 2 3 5 4 4 3 3 7 4 6 5 6 11 8 4 1 3 7 4 6 7 5 6 4 5 5 7 13 7 3 3 9 12 4 11 16 18 19 18 17 15 14 11 9 7
17 15 11 3 3 3 3 5 2 3 6 6 4 4 4 1 6 6 1 2 1 7 2 4 1 0 1 1 1 0 2 1 0 2 5 4 2 3 1 1 2 0 3 1 4 3 3 5 3 5 3 12 3 5 4 6 3 5 3 6 9 2 3 2 8 1 3 7 4 7 8 0 8 6 6 12 6 6 13 13 17 16 14 14 14 13 10 7
19 16 13 9 6 3 8 8 6 5 5 5 4 3 2 6 3 2 1 3 2 1 4 2 4 3 2 3 4 4 1 1 1 1 3 2 3 2 0 1 3 4 2 3 2 3 6 2 2 4 4 4 6 7 4 4 6 8 7 8 7 4 4 2 1 2 3 8 1 5 9 4 3 4 1 5 14 7 9 9 9 15 16 15 15 12 7 4
21 16 6 4 9 8 4 0 1 5 6 4 5 6 8 8 1 3 1 1 3 2 3 2 5 7 10 3 3 4 2 2 3 3 3 1 5 3 4 5 1 2 1 2 1 2 1 4 6 3 2 3 6 9 8 5 8 8 5 11 8 7 5 4 4 8 7 5 2 8 7 4 3 2 5 7 7 10 7 9 10 13 13 12 7 4 2 1
23 13 3 1 3 10 13 6 5 3 2 6 8 7 6 1 2 1 2 2 3 2 2 4 4 4 5 3 6 5 1 2 6 10 8 4 3 1 1 2 3 2 1 1 3 1 4 5 6 5 4 2 9 5 6 5 3 2 5 6 7 7 6 8 10 8 5 3 4 4 3 1 2 3 4 2 5 7 7 6 9 12 10 8 8 8 5 3
11 1 4 2 3 2 6 6 4 2 4 8 6 6 3 1 0 1 1 3 1 1 4 3 6 7 3 5 4 6 8 3 5 6 1 2 2 3 2 1 2 4 1 3 1 0 2 1 3 6 2 3 6 7 3 8 6 4 6 6 6 7 10 4 1 1 4 5 1 0 2 3 4 3 8 6 8 7 7 6 8 9 9 9 6 5 10 11
6 6 1 2 3 3 7 7 6 5 7 7 4 2 2 2 5 2 3 0 0 0 3 6 4 3 3 3 2 6 4 4 6 3 3 1 2 4 3 4 3 1 1 2 2 2 1 6 5 2 4 3 2 5 4 3 6 5 3 6 1 2 4 6 5 1 2 4 3 1 1 3 1 1 5 6 8 6 7 6 7 7 9 9 10 13 11 8
6 3 2 4 4 7 7 6 5 6 5 4 1 3 1 1 1 3 1 1 2 3 5 2 0 4 0 0 5 3 6 5 4 3 1 3 2 3 2 4 3 4 6 2 3 1 2 2 3 2 2 7 2 3 5 1 1 5 4 4 3 2 3 1 6 3 4 1 1 2 1 2 1 1 1 2 4 7 8 9 10 10 11 12 12 11 12 11
1 1 2 2 0 10 6 5 8 6 4 2 1 2 1 2 3 1 3 1 1 2 3 0 1 1 1 1 2 2 4 3 1 2 2 2 3 1 2 1 4 7 6 3 2 1 1 1 4 1 1 2 2 3 4 1 3 2 4 2 0 3 2 3 4 4 6 5 3 2 2 2 1 1 1 0 1 4 7 9 10 12 14 12 13 13 12 12
3 2 2 2 1 8 7 6 6 5 3 0 1 2 2 1 2 4 6 0 1 2 0 0 0 2 2 0 0 2 3 1 2 0 3 2 1 2 3 3 2 7 4 2 1 1 1 1 1 5 5 1 2 1 4 7 5 1 3 2 0 1 1 3 2 2 6 7 4 6 1 4 1 2 4 3 1 2 9 10 8 9 12 12 12 11 9 8
1 2 2 3 2 7 6 7 2 1 0 2 1 2 2 1 1 5 7 6 1 1 1 2 1 2 0 3 5 2 1 3 3 2 1 1 1 1 0 3 2 5 3 3 6 4 2 2 0 4 5 1 1 1 1 5 8 5 5 1 2 1 2 3 1 1 2 6 5 5 4 3 3 0 2 5 1 5 8 12 11 10 10 9 7 7 6 5
2 1 1 0 1 0 7 2 1 1 1 1 2 1 1 1 3 5 4 5 4 2 1 3 0 2 1 2 0 3 2 3 3 2 2 2 1 2 5 8 4 2 1 1 3 3 0 1 2 2 1 1 2 6 2 2 0 4 6 1 3 2 4 3 3 2 4 2 5 2 6 4 1 2 2 4 4 6 6 10 11 9 9 9 9 9 7 5
2 2 5 5 2 6 6 1 2 0 1 3 2 2 2 2 1 2 4 5 3 3 3 2 0 2 1 0 2 3 2 3 3 1 1 2 3 4 6 8 7 4 2 3 1 1 2 3 5 3 6 6 4 4 2 7 4 5 5 2 2 1 1 3 2 6 6 3 5 2 2 2 1 2 3 4 7 7 6 8 12 9 7 7 8 9 9 9
1 2 6 3 3 5 3 4 3 2 2 3 2 1 2 1 3 5 4 3 3 3 1 2 2 2 1 0 4 2 1 2 4 4 2 2 3 6 8 10 8 5 4 1 1 3 1 2 3 1 2 3 6 8 9 6 7 3 1 4 2 1 4 3 6 2 7 5 6 9 6 4 2 3 3 7 10 9 9 6 9 12 7 7 7 6 7 8
1 1 2 7 6 4 4 4 4 1 0 0 1 2 2 3 1 1 2 3 2 3 2 3 1 0 2 1 3 1 4 3 1 3 1 1 1 3 8 9 8 6 4 4 5 1 5 2 3 2 4 3 2 3 4 6 5 5 1 5 5 4 3 2 2 1 4 1 4 4 3 1 3 3 5 6 9 9 7 8 7 7 8 8 6 6 6 7
3 1 4 5 5 4 1 1 2 3 4 2 4 2 2 1 1 3 6 2 2 4 5 1 3 4 3 3 4 4 6 5 5 2 3 4 4 3 2 7 8 6 11 11 8 1 2 1 6 4 5 5 2 2 3 2 2 5 6 4 7 2 4 4 5 4 6 4 4 2 5 12 9 10 9 9 8 11 10 8 9 8 7 6 4 5 5 6
1 3 2 4 6 5 2 3 1 1 2 3 2 0 3 1 1 2 5 2 4 2 2 6 3 3 2 3 1 4 4 3 6 3 5 2 3 2 6 3 8 13 14 7 11 3 3 6 9 3 3 1 2 1 4 2 1 2 4 6 5 8 3 2 4 2 6 11 1 1 9 17 13 11 9 9 8 9 9 9 8 7 7 7 6 6 7 7
2 1 1 1 1 1 5 4 5 4 2 5 1 1 0 3 5 1 3 2 0 4 2 4 8 4 1 1 2 3 4 3 4 3 5 1 2 7 7 8 5 9 9 3 5 4 3 4 6 2 4 3 7 9 4 2 1 0 4 6 9 6 4 3 0 4 7 7 9 8 14 14 15 12 9 8 9 9 10 9 8 8 8 7 7 7 7 7
2 1 0 1 0 3 4 5 2 3 6 3 1 2 1 3 4 0 0 2 3 4 2 2 4 5 6 5 4 2 2 2 3 2 1 4 2 3 5 6 3 8 7 5 5 2 3 3 1 3 2 9 11 11 8 4 5 7 10 8 8 9 4 6 6 3 3 0 4 15 9 3 3 8 9 8 8 10 9 8 9 9 9 8 7 7 7 6
2 2 3 4 1 3 4 2 1 4 4 2 3 1 2 0 2 1 3 3 1 2 2 5 0 3 5 6 4 4 1 3 2 2 2 1 4 2 1 1 4 6 5 4 3 3 3 1 4 4 2 5 10 11 9 7 8 7 10 13 13 8 5 4 4 5 12 11 11 13 9 5 2 5 10 9 8 8 10 11 9 9 8 8 8 8 7 7
1 1 0 1 3 3 4 3 2 3 3 2 4 0 3 0 2 2 2 0 1 1 1 3 2 2 2 5 5 2 1 2 1 1 2 0 1 1 1 2 1 2 5 5 4 4 6 1 3 2 4 5 7 12 9 7 6 10 13 16 16 13 4 2 1 2 5 8 11 10 8 5 4 6 10 9 10 12 13 11 10 8 8 9 9 8 8 8
1 1 1 2 0 1 3 3 1 3 2 2 3 1 2 1 0 1 4 3 2 1 5 5 3 7 3 6 3 2 3 1 3 3 3 3 3 1 1 0 1 3 2 3 1 3 2 1 2 2 1 2 4 7 7 4 6 9 10 9 9 7 5 1 3 5 4 18 12 9 9 5 10 10 12 10 12 10 11 12 11 9 8 9 10 9 8 7
Wind_Direction
342 342 341 338 335 333 331 329 329 325 324 325 325 325 324 326 327 325 327 325 327 327 323 323 321 320 320 320 322 327 334 334 318 306 218 242 199 220 190 218 176 194 208 93 106 118 135 150 195 220 181 141 228 194 172 152 137 75 223 181 268 219 173 190 171 168 45 140 170 164 178 139 129 158 126 135 92 104 92 87 94 94 88 103 121 130 138 141
342 341 340 336 333 331 329 329 325 324 323 322 322 322 323 323 323 324 325 326 328 323 322 321 321 317 318 318 322 329 338 314 293 267 236 229 205 202 215 216 192 175 147 106 152 160 142 186 195 162 170 167 177 211 140 212 148 167 225 163 247 198 230 146 127 123 146 166 153 150 153 148 136 137 189 119 124 114 106 112 113 101 105 114 126 138 142 145
340 339 336 334 331 329 328 326 324 323 322 322 320 321 321 321 322 322 324 322 322 323 320 319 319 317 316 318 316 338 337 316 283 266 258 237 223 190 210 197 169 152 164 158 189 160 165 182 156 152 198 143 192 196 171 275 150 218 121 275 255 227 24 97 125 132 184 143 141 142 134 118 159 61 276 131 129 117 128 136 129 128 133 138 142 145 149 149
338 337 336 332 329 327 325 324 323 321 321 320 320 319 320 321 320 322 320 319 317 319 320 316 314 315 315 312 326 340 25 288 289 247 250 233 194 190 197 195 176 156 153 182 144 144 100 111 148 163 148 222 237 203 186 181 164 203 163 232 257 239 81 83 122 128 141 159 138 130 133 117 121 83 141 136 117 132 145 154 152 146 145 146 150 151 154 151
335 335 332 329 326 326 324 321 321 319 318 318 318 318 318 320 320 318 316 315 317 316 315 314 313 310 312 312 341 2 18 19 241 237 219 149 177 186 184 191 172 153 166 143 110 137 154 135 138 181 209 209 208 185 231 164 213 145 221 215 322 309 73 112 117 128 137 133 119 128 137 137 105 60 120 151 145 163 167 160 151 144 144 149 154 156 153 152
336 334 330 325 326 324 321 320 318 316 316 315 315 315 316 317 316 315 311 311 313 311 311 311 311 310 310 318 312 248 94 120 294 280 325 73 175 179 171 162 159 142 145 129 144 145 142 194 119 168 199 194 206 200 201 178 178 265 277 230 232 266 120 124 120 132 137 138 137 146 109 110 113 95 92 33 100 124 137 144 149 144 143 145 147 150 154 155
335 332 329 327 326 321 320 317 316 313 313 312 312 313 314 313 312 310 309 309 306 307 305 311 310 308 315 314 269 167 130 273 318 258 10 106 160 164 152 152 144 131 144 129 150 145 175 133 147 176 189 215 260 220 239 164 183 209 260 24 125 131 126 137 126 136 138 140 139 104 118 104 131 133 13 56 341 86 128 138 143 137 137 142 148 154 155 158
332 330 329 328 326 321 318 316 313 311 311 312 311 312 311 310 311 310 307 305 304 299 304 305 311 309 324 335 289 324 57 252 251 274 338 118 136 149 141 118 125 135 146 166 153 171 145 178 172 134 219 191 219 185 208 155 186 205 247 251 110 106 122 129 129 131 132 124 111 119 109 104 82 102 88 15 10 11 130 134 140 140 142 146 148 152 155 160
332 332 332 329 325 322 319 315 311 310 311 311 308 308 308 308 308 307 304 301 300 297 295 301 301 311 318 336 118 330 269 236 226 238 109 117 133 139 131 135 144 144 160 150 177 166 141 209 174 180 201 220 262 277 241 134 245 220 218 91 118 122 128 129 127 136 129 129 125 105 101 76 82 89 49 2 108 3 137 135 144 145 149 153 154 155 158 162
331 333 331 330 326 324 320 314 312 311 310 308 307 307 307 306 306 301 299 298 296 294 290 282 281 297 24 32 54 165 262 200 16 47 108 130 133 139 162 142 152 151 139 191 154 168 190 158 175 201 269 298 268 249 176 179 246 192 189 105 130 131 130 142 136 137 125 110 102 112 120 121 190 151 140 342 257 77 147 142 148 153 157 157 158 158 162 164
334 334 333 331 330 325 319 315 312 312 312 307 304 304 305 304 300 297 296 294 293 293 286 263 241 222 274 248 128 228 268 56 7 59 103 132 138 146 183 166 167 159 166 158 184 196 195 146 158 73 185 238 325 275 168 211 189 129 118 103 63 69 66 126 113 129 111 126 127 117 110 111 114 57 166 162 167 160 147 148 155 159 160 161 159 161 163 168
333 333 334 332 332 325 318 316 316 315 310 308 306 305 303 301 299 297 292 294 292 295 285 227 193 185 318 87 192 225 314 88 60 84 107 140 164 189 183 165 170 176 166 170 202 199 194 195 16 328 206 27 320 323 291 250 87 136 128 106 98 106 113 225 145 151 139 130 125 110 93 92 9 168 112 149 120 188 149 151 159 161 163 161 161 160 167 173
332 333 334 334 332 328 321 318 318 316 314 309 305 301 300 300 297 292 291 290 280 248 219 177 165 213 19 317 229 238 275 298 1 24 113 199 19 0 330 173 189 175 185 174 189 190 182 162 96 315 294 334 303 277 297 325 286 133 123 125 110 96 177 270 309 127 118 124 148 146 139 168 194 163 142 154 140 150 151 156 161 163 166 164 164 165 169 172
331 331 332 332 332 330 325 320 319 318 313 308 299 298 298 294 287 286 284 267 261 226 185 165 158 142 139 244 276 240 250 257 246 226 206 173 81 295 286 264 208 216 317 255 28 136 155 167 223 249 270 253 264 307 343 340 140 133 110 96 145 133 214 188 218 129 113 151 160 311 132 192 171 168 156 166 158 159 160 162 163 167 170 169 169 169 173 179
328 329 330 332 332 330 326 321 318 312 311 308 303 298 294 284 281 277 271 268 235 174 156 145 30 107 31 270 267 270 255 256 251 228 171 162 175 22 220 213 199 210 217 214 307 123 141 148 182 255 265 224 238 297 298 38 37 128 116 216 297 162 176 177 256 176 150 149 174 86 104 169 174 169 168 165 168 162 165 164 166 170 171 173 174 173 176 182
327 327 327 329 330 328 325 322 314 313 315 310 303 296 290 277 268 264 256 249 121 148 140 82 227 209 31 295 258 293 284 142 259 220 185 171 171 198 198 191 147 202 181 282 225 303 345 114 219 203 259 313 191 117 49 61 15 253 109 151 178 104 164 131 238 219 277 130 103 261 147 100 222 178 174 167 178 168 165 168 168 174 172 173 177 174 177 176
326 326 326 326 327 326 324 320 321 321 319 311 304 295 282 262 236 221 207 128 142 131 176 77 139 221 357 236 282 16 359 257 242 60 161 194 175 192 124 125 208 197 161 280 256 172 225 145 272 193 211 224 169 121 93 111 168 220 78 163 189 159 140 228 134 201 194 151 178 114 128 188 126 162 174 177 183 168 169 172 172 181 174 173 174 175 176 177
326 326 325 324 323 324 322 318 323 327 328 316 306 289 273 231 146 110 91 95 115 162 298 245 229 330 279 306 5 282 262 294 325 262 190 194 177 153 144 167 161 142 123 170 180 160 162 199 191 217 315 190 124 105 154 193 182 183 183 110 101 36 186 165 162 193 153 187 159 142 122 165 159 153 168 185 181 175 175 172 176 173 183 175 177 179 178 179
326 325 322 321 321 320 321 321 323 332 341 316 311 330 145 153 152 253 120 158 119 4 12 275 130 10 166 270 294 296 295 258 298 222 248 136 179 180 172 111 107 121 136 99 288 153 269 239 58 159 215 202 198 174 159 105 106 112 147 147 136 151 208 216 232 152 166 164 166 163 156 168 160 154 165 177 182 181 178 171 169 168 200 183 181 181 181 181
323 320 320 320 319 319 321 321 326 337 1 336 15 61 114 9 9 340 38 194 213 221 243 242 186 280 306 285 272 270 275 274 202 254 162 183 132 190 198 158 80 93 106 159 215 203 143 178 205 205 202 213 182 160 174 182 81 100 42 152 173 184 209 181 140 160 156 138 164 169 146 162 171 171 160 173 175 169 174 177 181 187 188 194 183 183 182 182
320 321 320 319 318 319 318 321 322 333 5 313 297 108 346 170 30 320 275 227 223 237 228 241 193 202 232 280 288 27 7 343 206 266 209 159 127 128 225 157 85 153 187 180 161 244 103 199 234 219 193 196 196 165 154 118 49 197 100 140 190 177 202 179 110 155 160 152 98 135 148 170 171 169 160 166 166 174 184 186 191 195 190 196 191 184 184 179
319 319 319 319 318 318 318 317 321 327 15 308 356 47 242 208 206 183 87 325 298 216 222 245 223 265 264 257 263 257 93 261 315 272 285 139 158 152 247 128 148 174 244 96 350 179 188 212 238 218 210 207 156 129 127 152 172 278 130 184 147 208 82 84 131 158 152 98 144 141 147 168 171 159 159 171 186 183 186 185 187 189 186 192 201 190 179 167
320 316 318 319 319 317 316 311 313 18 291 126 350 290 244 235 75 53 125 246 274 226 198 222 218 244 283 260 232 112 117 205 250 286 228 133 147 186 142 119 155 195 123 126 175 118 242 264 238 235 183 188 271 150 114 90 124 180 115 140 192 179 145 151 169 160 154 152 154 153 136 163 156 161 166 161 157 169 175 176 154 188 186 193 195 193 180 175
316 318 318 319 318 317 313 320 336 110 200 229 258 217 241 332 215 22 84 260 310 316 206 220 192 198 241 275 211 124 137 257 169 261 237 115 158 196 121 144 148 143 211 159 173 173 222 251 213 172 183 176 230 250 126 173 260 196 168 184 141 179 201 143 163 148 84 63 124 112 102 128 202 175 159 161 147 148 161 139 125 217 197 184 163 283 216 180
319 320 322 321 319 316 316 322 83 232 259 238 246 250 264 301 349 181 102 339 15 290 269 312 238 236 235 286 123 222 222 269 196 208 226 121 121 95 215 196 108 206 199 169 133 203 266 271 72 111 206 207 206 273 214 145 222 321 220 202 187 183 120 114 140 142 103 76 182 136 107 213 209 197 181 158 160 178 166 176 209 234 203 187 196 228 240 201
322 323 326 328 323 324 307 108 329 320 332 287 236 262 324 339 19 164 99 69 336 262 349 279 35 302 34 290 74 170 55 324 230 236 139 180 149 137 139 296 124 211 213 135 183 200 217 248 146 214 200 222 221 228 193 148 173 82 269 197 173 160 134 142 150 137 175 186 191 176 131 229 273 209 202 205 178 183 171 190 199 205 205 196 199 207 227 206
323 325 327 331 328 333 355 301 284 287 1 296 313 337 331 294 224 125 45 6 18 286 260 240 63 309 67 250 124 66 69 266 309 195 90 196 162 117 111 229 29 290 165 148 75 269 171 262 185 214 185 190 216 247 211 146 125 233 244 142 152 141 147 162 163 167 104 75 149 187 115 144 195 229 189 186 203 190 193 199 202 204 206 197 199 202 214 213
323 325 327 329 324 347 240 328 350 332 243 257 348 324 320 327 133 48 81 59 340 276 316 297 220 304 59 306 97 116 198 229 17 284 182 198 109 355 104 201 168 190 196 135 211 260 176 232 202 219 197 194 217 217 183 152 157 222 196 152 163 163 169 167 161 150 124 104 164 206 154 54 225 247 165 176 200 199 202 204 204 198 202 201 196 197 202 191
324 324 326 327 319 323 212 189 121 251 239 317 312 309 315 2 94 107 116 111 356 272 223 343 278 326 303 340 345 157 1 260 120 254 344 58 37 143 180 215 170 196 235 170 218 280 262 208 213 194 174 224 222 217 189 167 181 260 162 187 180 176 164 158 152 115 128 96 206 209 192 156 273 183 161 191 212 205 201 200 201 195 194 198 200 193 189 181
319 321 325 325 320 95 87 227 226 243 310 304 294 297 341 64 38 40 22 352 10 304 226 226 62 253 110 82 303 347 224 309 186 332 45 144 253 36 197 162 170 234 280 334 227 224 240 262 197 166 204 212 198 214 182 184 206 162 139 147 92 59 76 58 38 23 80 209 231 202 188 175 188 196 181 174 211 199 181 192 200 198 195 198 201 191 187 186
319 316 317 331 274 306 309 287 256 210 242 279 304 335 66 37 105 108 80 287 11 261 345 354 271 325 130 146 264 306 161 224 279 155 30 69 15 53 346 279 25 44 26 350 288 270 277 260 237 228 193 216 173 221 189 194 201 150 116 120 85 21 36 39 15 357 98 250 261 187 196 180 207 232 206 217 54 180 188 190 191 190 193 197 199 194 189 180
316 310 300 251 234 351 172 238 168 348 333 319 355 27 71 298 8 78 245 358 34 311 334 305 293 69 257 259 84 209 178 307 231 124 158 162 137 145 109 162 185 294 315 286 285 343 295 218 220 244 208 190 162 189 252 190 141 168 102 126 139 183 55 284 26 24 228 206 262 173 150 242 247 220 200 207 245 181 196 195 190 187 191 196 200 197 188 181
314 308 292 248 213 222 239 271 348 327 315 342 32 53 59 96 50 286 299 322 316 301 293 216 296 306 148 74 339 300 224 211 281 71 96 32 122 233 276 185 205 144 200 239 247 11 277 277 254 234 264 198 157 171 220 168 177 152 158 157 145 130 147 155 172 311 307 272 209 150 167 216 255 290 239 212 198 193 185 193 179 181 188 195 199 197 183 179
310 312 307 198 193 220 236 184 3 348 348 19 64 33 58 58 300 332 294 242 245 298 296 315 332 43 42 75 336 2 11 339 111 10 49 24 49 28 2 14 51 341 143 247 246 201 78 226 275 169 242 196 171 192 178 167 163 187 140 161 174 149 152 152 170 187 216 212 322 145 130 233 146 228 312 269 215 172 173 176 174 177 188 189 185 178 147 141
311 301 204 229 247 244 238 249 266 288 48 47 40 73 86 243 244 263 292 297 290 302 308 329 39 32 15 2 343 19 62 22 42 71 9 42 1 111 274 312 330 88 199 146 266 92 197 213 254 226 228 161 175 198 148 109 93 199 150 85 125 201 139 163 181 193 203 138 94 154 192 251 197 278 312 300 152 141 144 144 148 165 166 162 165 172 169 71
324 355 140 258 226 267 159 183 186 139 84 44 68 39 71 176 261 169 240 194 303 6 314 11 45 47 354 9 329 7 351 84 7 94 325 53 101 57 310 264 356 353 86 175 216 205 19 310 261 301 306 181 207 136 207 142 190 221 125 164 204 180 150 108 25 222 79 60 238 113 336 307 291 359 11 35 81 82 99 114 135 146 151 149 151 105 83 84
3 324 37 285 263 171 158 155 149 107 67 81 83 3 207 279 193 180 265 87 243 344 45 63 346 51 2 356 290 342 338 36 21 75 15 14 8 15 342 288 202 26 196 187 323 174 145 257 298 77 254 266 219 166 157 165 147 115 148 227 130 89 108 126 165 77 76 145 232 46 204 300 31 235 331 57 77 76 95 113 111 114 125 122 96 99 113 121
327 337 248 274 230 140 143 156 103 51 80 74 81 235 234 341 246 181 255 67 20 32 74 92 258 113 320 100 353 344 326 82 319 49 120 344 120 260 341 314 299 56 318 312 137 280 111 349 290 237 233 274 329 73 74 29 61 145 182 200 130 229 231 319 113 155 136 133 195 327 315 253 159 269 333 26 91 98 94 102 104 101 96 103 119 130 133 140
249 31 7 264 57 140 141 126 66 76 55 50 288 11 261 249 268 283 278 91 96 113 67 276 153 340 135 72 245 318 20 66 335 87 83 340 69 49 28 242 306 348 336 10 66 307 26 168 296 293 87 291 29 69 202 283 334 40 89 47 263 109 156 142 200 158 115 160 113 285 43 232 234 214 61 171 80 99 97 89 99 108 113 115 119 135 148 162
22 42 312 285 26 126 139 79 70 45 71 9 230 227 216 295 287 325 9 164 340 83 234 107 277 52 29 107 323 54 341 36 68 307 95 285 141 290 12 325 320 322 339 350 116 211 254 110 239 285 321 74 186 358 190 168 150 63 38 346 213 17 210 117 74 105 155 152 184 141 248 267 262 234 171 169 105 94 108 98 89 94 109 121 130 140 152 161
317 100 265 319 73 135 98 60 56 100 207 260 166 245 314 246 311 346 359 50 92 141 148 166 150 75 261 25 2 344 46 9 27 49 114 328 91 0 343 17 298 341 356 3 46 358 32 19 289 317 8 18 235 240 221 173 158 145 147 161 170 129 164 128 249 11 91 118 166 152 217 269 270 291 207 135 125 92 102 108 106 106 109 117 123 127 132 137
70 25 269 193 59 178 85 97 243 199 115 173 247 186 285 10 49 346 357 359 73 18 35 101 69 107 69 54 237 2 83 26 346 67 350 107 9 137 316 1 329 295 23 49 277 281 123 175 74 315 190 278 289 285 309 189 30 126 110 53 155 139 106 96 144 240 62 36 73 92 125 267 257 319 152 132 111 106 103 107 103 103 108 112 112 114 118 120
64 219 257 318 317 105 70 31 298 10 221 228 272 316 309 33 101 280 38 359 20 44 15 48 201 74 16 63 34 52 67 69 358 345 310 323 14 5 319 347 348 15 92 336 11 286 172 34 8 301 318 296 306 279 310 47 71 34 9 5 60 38 171 166 181 170 119 139 87 10 67 274 300 47 121 113 98 92 87 102 110 104 101 97 101 98 95 90
187 240 315 299 9 92 91 236 282 276 271 309 99 249 15 112 43 14 38 339 35 337 51 347 27 98 121 275 71 18 310 84 5 42 10 345 32 343 7 11 9 25 19 312 80 289 43 324 111 329 13 338 346 358 4 351 46 73 328 318 303 9 79 125 109 54 100 205 170 139 184 237 206 105 95 123 118 113 112 103 113 114 103 96 90 84 87 87
300 281 240 296 350 97 208 193 165 166 251 188 61 39 12 24 63 91 68 14 345 27 36 9 283 234 24 6 71 341 21 108 140 351 135 6 297 312 5 12 9 29 329 284 257 318 83 317 61 83 127 101 52 33 1 343 321 298 298 335 0 42 106 103 105 26 104 233 115 119 131 328 92 108 142 140 127 114 110 109 88 97 112 109 100 94 87 91
18 62 310 340 1 19 72 108 128 143 125 114 45 320 67 46 335 15 69 40 61 61 75 296 342 64 32 24 41 19 20 19 75 341 26 353 331 326 337 343 28 14 343 357 16 67 103 47 64 95 125 150 200 219 251 222 338 41 297 15 346 5 34 101 104 97 158 182 137 230 169 148 158 176 172 161 143 131 128 121 115 110 97 84 83 80 80 83
161 70 2 337 338 34 293 342 351 73 128 147 93 279 31 10 256 12 25 95 355 44 60 35 340 40 346 57 56 38 359 20 359 70 4 333 280 262 292 8 10 13 348 358 358 81 57 54 13 53 43 70 239 217 273 283 125 297 28 354 346 5 353 86 123 213 158 108 294 264 168 153 182 174 173 156 140 130 130 127 120 111 108 109 100 91 85 80
62 273 95 172 128 277 21 324 27 54 27 85 98 86 128 51 32 60 328 48 30 25 93 344 30 49 58 96 114 58 337 41 28 19 320 311 348 342 6 350 59 353 5 7 353 86 108 82 323 340 20 360 30 30 13 57 71 185 47 40 22 340 21 106 235 160 144 143 188 183 174 173 176 174 156 147 144 138 135 133 128 123 114 108 101 96 94 92
111 262 192 332 138 255 182 259 327 84 64 76 92 59 80 88 77 95 174 333 26 354 63 93 358 347 39 39 91 93 14 71 349 316 30 331 11 338 14 344 326 17 14 5 12 88 87 59 340 331 326 15 17 26 8 49 26 25 16 24 27 32 12 88 78 40 57 148 144 142 149 62 118 145 145 141 142 133 126 120 119 121 122 114 106 99 95 92
5 51 314 358 9 268 271 312 140 61 69 347 89 294 132 120 131 337 18 74 19 342 32 82 306 24 55 58 64 85 342 142 136 48 319 99 332 47 46 195 270 327 18 12 333 344 102 108 91 330 49 350 8 11 15 8 53 33 7 16 14 13 46 51 88 88 75 64 104 119 118 119 291 138 129 139 128 121 120 127 127 125 123 116 109 105 99 94
259 174 160 19 354 306 346 13 38 91 86 5 78 339 66 53 116 143 87 63 118 152 39 147 185 87 30 60 53 45 210 172 189 230 242 179 47 277 103 316 126 343 356 2 13 328 55 130 74 56 49 331 1 358 341 337 357 43 14 9 357 350 15 5 12 241 116 133 122 105 117 164 195 152 130 128 137 138 137 133 130 131 125 121 117 115 112 109
7 296 58 118 269 354 20 318 346 60 44 223 143 233 137 275 261 78 82 26 36 106 162 145 172 91 360 42 13 309 291 252 262 251 210 232 229 252 128 156 104 63 340 16 296 43 357 114 68 71 53 267 306 353 336 15 22 21 352 344 329 297 274 311 17 12 155 140 126 152 204 155 158 150 135 143 143 142 137 141 136 130 130 128 129 127 122 118